Location: Wien
(48.2082°N, 16.3738°E)
Time: 10:01:15
(UTC+02:00)

DOVE 4 - Pass Details

Date: 27 March 2019
Orbit: 587 x 804 km, 97.7° (Epoch: 24 April)

Event Time Altitude Azimuth Distance (km) Brightness Sun altitude
Rises 02:21:39 0° 24° (NNE) 2,915 ? -30.8°
Reaches altitude 10° 02:24:15 10° 38° (NE) 1,975 ? -30.5°
Maximum altitude 02:27:42 24° 93° (E) 1,263 ? -30.1°
Enters shadow 02:27:45 24° 94° (E) 1,262 ? -30.1°
